Wind_Speed
23 23 22 21 21 21 21 20 20 20 20 20 21 21 21 22 22 22 22 23 23 24 25 25 26 27 28 29 30 31 31 32 32 33 34 34 34 35 35 35 35 35 34
25 24 24 23 23 23 22 22 22 22 22 23 23 23 24 24 24 24 24 25 25 26 27 27 28 29 30 31 32 32 33 33 34 34 35 35 35 36 36 36 36 36 36
27 26 26 25 25 25 25 24 24 25 25 25 25 26 26 26 26 26 26 26 27 28 28 30 31 32 32 33 33 34 35 35 35 35 36 36 37 38 38 38 37 37 37
29 28 28 27 27 27 27 27 27 27 27 27 27 27 27 28 28 28 28 29 29 30 31 32 33 34 35 35 36 36 36 36 37 37 38 38 39 39 40 39 39 38 38
31 30 30 29 29 29 30 29 29 29 29 29 29 29 29 29 29 30 30 31 32 33 34 35 36 36 37 37 37 38 38 39 39 40 40 40 41 41 41 41 40 40 39
33 33 32 32 32 32 32 32 31 31 31 31 31 31 31 31 31 32 33 34 35 36 36 37 38 38 38 39 39 39 40 41 42 42 43 43 43 43 42 41 41 40 39
36 35 35 35 35 34 34 34 33 33 33 34 33 33 33 33 34 35 35 36 37 37 38 39 40 40 41 41 41 41 42 42 43 44 44 44 44 44 43 43 42 41 40
39 38 38 38 38 38 37 36 36 35 35 35 35 35 35 35 35 36 36 37 39 39 40 41 42 42 42 43 43 43 44 44 45 45 45 45 45 45 44 44 43 42 41
40 40 40 39 39 39 38 38 37 36 35 35 36 36 36 35 36 37 38 39 40 41 42 43 44 44 44 44 44 44 45 46 46 46 46 47 46 45 45 44 42 41 41
42 41 40 40 39 38 38 38 36 36 37 37 38 38 39 39 39 39 40 41 42 43 44 44 45 45 45 46 46 47 47 47 47 47 47 47 46 45 43 42 42 41 41
44 42 40 39 40 39 38 38 39 39 38 38 39 40 41 41 42 43 42 42 43 44 44 45 45 46 46 46 47 47 48 48 48 48 47 46 45 44 43 42 41 40 40
43 42 42 41 41 40 39 39 40 39 39 39 40 41 42 43 44 45 45 44 44 44 45 46 46 47 47 48 48 48 48 49 49 48 47 46 45 44 43 42 40 39 38
44 44 44 42 41 41 41 42 41 40 40 41 41 42 42 44 44 45 45 45 46 46 46 46 47 48 48 48 48 49 49 49 49 48 46 45 44 43 42 41 40 39 38
44 42 43 43 43 43 43 42 41 41 41 42 43 43 44 44 45 46 47 48 49 48 48 48 48 49 49 49 49 49 49 49 48 47 45 44 43 42 41 41 40 38 37
44 45 44 45 44 43 43 43 43 42 43 44 44 44 45 46 47 48 48 49 50 49 48 48 48 48 49 49 49 49 49 48 47 46 45 43 42 42 41 40 38 37 36
44 44 45 45 45 45 46 45 45 45 45 44 46 47 47 47 48 48 49 49 50 50 49 48 48 49 49 49 49 49 48 46 46 45 44 43 42 41 40 38 37 36 36
47 47 47 46 46 46 46 47 47 47 47 47 48 48 48 48 49 49 49 50 50 50 49 48 48 49 49 49 48 47 46 45 44 43 42 42 41 40 39 38 37 36 35
48 48 48 47 47 47 48 48 48 48 48 48 48 48 48 49 49 49 49 49 49 49 48 48 47 48 48 48 47 46 45 44 43 42 42 41 40 39 38 37 36 35 35
49 50 49 48 48 48 48 48 47 47 47 47 48 48 48 48 49 49 49 48 48 48 48 47 47 47 47 47 46 45 44 43 43 42 40 39 39 38 36 36 35 34 34
50 51 49 48 48 48 48 48 47 46 46 47 48 48 47 47 47 47 47 48 47 47 47 47 46 46 46 46 45 44 43 42 41 40 39 38 37 36 36 35 34 34 33
50 49 48 48 47 47 47 47 47 46 46 47 47 46 46 46 46 46 47 47 47 46 46 46 46 45 45 44 43 42 41 40 39 38 37 37 36 36 35 34 34 34 34
49 49 48 48 47 46 47 47 47 47 46 46 46 46 45 46 46 46 46 46 46 46 46 46 45 44 44 43 41 40 40 39 38 38 37 36 35 35 35 34 34 34 34
47 47 47 47 47 47 46 46 46 46 46 45 45 45 45 45 45 45 46 46 46 46 45 45 44 43 42 41 40 39 39 38 37 36 36 36 35 35 35 35 34 35 34
46 46 46 45 45 45 45 44 45 44 44 44 44 44 44 45 45 45 45 45 44 44 43 43 42 42 41 40 39 38 37 37 36 36 35 35 36 35 35 34 34 35 34
46 45 45 44 44 44 44 44 43 43 43 43 43 43 44 44 43 43 43 43 42 42 41 41 40 40 39 38 37 37 36 35 35 36 35 35 35 34 34 34 34 34 33
43 43 43 43 43 43 42 42 42 42 42 42 42 42 42 42 42 42 41 41 40 40 39 39 38 37 37 37 37 36 35 35 35 35 35 34 34 34 33 33 34 34 33
Wind_Direction
239 241 243 245 248 250 253 256 258 261 264 267 271 274 277 279 282 285 287 290 293 295 298 300 302 303 305 306 307 308 309 310 311 311 312 312 312 313 313 313 312 312 311
241 243 245 247 250 252 255 257 260 262 265 268 271 274 277 280 282 285 287 290 293 296 298 299 300 302 303 304 305 306 306 307 308 309 310 310 310 311 312 311 310 310 309
241 244 247 249 251 253 256 259 261 264 266 268 271 274 276 279 282 284 286 289 292 295 297 298 300 301 302 303 303 304 305 306 307 308 308 308 308 309 309 309 308 308 308
242 245 247 250 252 254 257 259 262 264 266 268 271 273 276 279 281 284 286 288 291 293 295 298 299 301 302 302 302 302 303 304 305 306 306 306 306 307 308 307 306 306 306
244 246 248 251 254 256 258 260 262 264 267 268 271 273 276 279 281 283 286 288 291 293 295 298 299 300 300 301 301 301 302 303 304 304 304 304 304 305 305 305 304 304 304
246 248 251 253 255 257 259 260 263 265 267 269 271 273 276 278 280 283 286 288 290 292 295 297 299 299 300 300 300 300 301 301 302 303 303 303 303 303 303 303 302 302 302
247 249 251 254 255 257 259 261 264 266 268 269 271 273 275 277 279 282 285 287 290 292 294 296 297 298 298 299 298 298 299 300 300 301 302 302 302 302 301 301 301 300 300
248 250 252 254 255 257 260 262 264 265 268 270 272 273 275 276 279 282 284 287 289 291 293 295 296 297 297 297 297 298 299 300 300 300 300 300 300 300 299 299 298 298 298
249 251 252 253 255 257 258 259 263 264 268 270 273 274 275 275 277 281 285 287 289 291 293 294 296 296 296 296 296 297 298 299 298 298 298 298 298 298 298 297 296 295 296
249 251 251 253 254 256 258 259 261 264 267 271 273 274 275 277 279 281 284 286 288 290 293 294 295 296 296 296 296 296 297 298 298 297 296 297 297 297 296 295 294 293 293
248 251 252 252 255 258 261 262 264 266 269 271 273 275 277 279 281 283 284 286 288 290 292 293 294 295 295 295 296 296 296 297 297 296 296 295 295 295 294 294 293 293 292
249 250 253 255 258 261 263 264 266 268 270 273 275 277 278 280 283 284 285 286 288 290 292 293 293 294 294 294 294 294 295 295 295 295 294 294 294 293 292 292 292 292 291
251 253 255 259 262 263 263 265 268 269 271 273 276 278 280 282 283 285 286 287 288 290 292 293 293 293 294 293 293 294 294 294 294 294 294 293 292 292 292 292 292 292 291
253 256 257 259 262 263 264 266 268 270 272 275 277 279 281 283 283 285 287 288 289 289 291 291 292 292 293 293 293 293 293 293 294 294 293 294 293 292 292 292 292 292 291
256 258 260 261 261 262 265 267 269 272 275 277 279 280 281 282 284 286 287 289 289 290 291 291 291 292 292 292 292 292 293 293 292 292 292 292 292 292 292 292 291 290 289
259 261 261 261 263 265 267 269 271 274 275 278 280 280 281 283 284 286 287 289 289 290 290 290 290 290 290 291 292 292 292 291 291 291 291 291 292 291 291 290 290 288 287
261 262 263 263 266 268 269 272 272 274 277 278 279 280 281 282 284 285 286 287 288 289 290 290 290 290 290 290 291 291 291 291 291 291 290 290 291 290 290 289 289 288 286
262 263 264 264 266 267 269 271 272 274 276 277 278 279 280 282 284 284 285 286 287 288 289 289 290 290 290 290 291 291 291 291 291 291 290 290 290 290 289 288 288 286 285
263 264 266 266 267 269 269 270 272 274 274 276 277 279 280 281 283 284 285 285 286 287 288 289 290 290 290 290 290 290 290 291 291 290 290 289 289 289 288 288 286 285 284
263 265 266 266 267 268 269 270 272 273 274 275 276 279 281 282 283 283 284 285 286 286 287 289 290 290 290 290 289 289 289 290 290 290 290 289 289 288 287 286 285 284 284
263 264 264 265 266 266 268 269 271 272 273 276 277 279 280 281 282 283 284 285 286 286 287 288 289 289 289 289 289 289 289 289 289 289 289 289 288 288 286 285 284 283 283
262 263 263 265 266 267 268 270 272 273 275 277 278 279 280 281 282 283 284 285 285 286 286 287 287 288 288 288 288 288 288 289 288 288 289 288 288 287 286 284 283 283 283
261 262 263 264 265 267 269 270 272 273 275 277 278 278 280 281 282 283 285 285 285 286 286 286 286 287 287 287 287 287 288 288 288 288 288 288 287 287 286 284 283 283 283
259 261 263 264 266 267 269 270 272 273 275 276 277 278 279 281 283 284 285 285 285 285 285 285 286 286 286 286 287 287 287 287 287 288 288 288 288 287 286 284 284 284 283
259 261 263 264 266 268 269 270 271 272 274 275 277 278 280 282 283 284 284 284 284 284 284 285 285 285 286 286 287 287 287 287 287 288 287 287 287 287 286 285 285 284 282
259 261 263 264 266 268 268 270 271 272 274 275 277 279 280 281 282 283 284 284 284 283 283 284 285 285 286 286 287 286 286 286 287 287 287 286 286 286 286 285 286 284 283
Height
5846 5848 5850 5851 5853 5854 5855 5856 5857 5858 5859 5859 5859 5860 5860 5860 5859 5859 5858 5857 5856 5855 5854 5853 5851 5850 5848 5846 5844 5841 5839 5836 5833 5831 5828 5825 5822 5819 5816 5813 5810 5807 5804
5842 5843 5845 5847 5848 5849 5851 5852 5852 5853 5854 5854 5855 5855 5855 5855 5855 5854 5853 5853 5852 5850 5849 5848 5846 5844 5842 5840 5838 5835 5833 5830 5827 5825 5822 5819 5816 5813 5810 5806 5803 5800 5797
5836 5838 5840 5842 5843 5844 5846 5847 5847 5848 5849 5849 5850 5850 5850 5850 5849 5849 5848 5847 5846 5845 5844 5842 5840 5838 5836 5834 5832 5829 5826 5823 5821 5818 5815 5812 5809 5806 5803 5800 5797 5794 5791
5831 5833 5835 5836 5838 5839 5840 5841 5842 5843 5843 5844 5844 5844 5844 5844 5844 5843 5842 5841 5840 5839 5837 5836 5834 5832 5830 5828 5825 5822 5819 5817 5814 5811 5808 5805 5802 5799 5796 5793 5790 5787 5784
5825 5827 5829 5830 5832 5833 5834 5835 5836 5837 5837 5838 5838 5838 5838 5838 5837 5837 5836 5835 5834 5832 5831 5829 5827 5825 5823 5820 5818 5815 5812 5810 5807 5804 5801 5798 5795 5791 5788 5785 5782 5779 5776
5818 5820 5822 5824 5825 5827 5828 5829 5829 5830 5831 5831 5832 5832 5832 5831 5831 5830 5829 5828 5827 5825 5823 5822 5819 5817 5815 5813 5810 5808 5805 5802 5799 5796 5793 5790 5786 5783 5780 5777 5774 5771 5768
5811 5813 5815 5817 5818 5819 5820 5821 5822 5823 5823 5824 5825 5825 5825 5824 5824 5823 5822 5821 5819 5817 5816 5813 5811 5809 5807 5804 5802 5799 5796 5793 5790 5787 5784 5781 5778 5774 5771 5768 5765 5762 5760
5803 5805 5807 5809 5810 5811 5812 5813 5814 5815 5815 5816 5817 5817 5817 5818 5816 5816 5814 5813 5811 5809 5807 5805 5803 5801 5798 5796 5793 5790 5787 5785 5782 5778 5775 5772 5769 5765 5762 5759 5756 5753 5751
5794 5796 5798 5800 5801 5802 5804 5805 5806 5806 5807 5807 5808 5808 5809 5809 5808 5808 5806 5804 5802 5801 5799 5796 5794 5792 5789 5786 5784 5781 5778 5775 5772 5769 5765 5762 5759 5756 5753 5750 5747 5744 5742
5785 5787 5789 5790 5792 5793 5795 5796 5797 5798 5798 5799 5799 5799 5799 5799 5799 5800 5799 5796 5794 5792 5790 5787 5784 5782 5779 5777 5774 5771 5768 5765 5762 5759 5756 5752 5749 5746 5743 5740 5737 5735 5733
5775 5778 5780 5781 5783 5785 5786 5787 5788 5789 5789 5790 5790 5790 5790 5789 5788 5788 5789 5788 5785 5782 5780 5778 5775 5772 5770 5767 5764 5761 5758 5755 5751 5748 5745 5742 5739 5736 5733 5730 5728 5726 5724
5767 5769 5770 5772 5774 5775 5777 5777 5778 5779 5780 5780 5780 5780 5780 5780 5779 5777 5777 5777 5775 5773 5770 5768 5765 5762 5759 5756 5753 5750 5747 5744 5741 5738 5735 5732 5729 5726 5723 5720 5718 5716 5714
5757 5759 5761 5763 5765 5766 5767 5768 5768 5769 5770 5770 5770 5770 5770 5769 5768 5766 5766 5765 5764 5763 5760 5757 5754 5751 5748 5745 5742 5739 5736 5733 5730 5727 5724 5721 5718 5715 5712 5710 5708 5706 5705
5747 5749 5751 5753 5754 5756 5757 5758 5759 5759 5760 5760 5760 5760 5759 5758 5757 5755 5754 5753 5752 5752 5750 5747 5743 5740 5737 5734 5731 5728 5725 5722 5719 5716 5713 5710 5708 5705 5702 5700 5698 5696 5695
5737 5739 5741 5742 5744 5745 5746 5747 5748 5748 5749 5749 5749 5749 5748 5747 5746 5744 5743 5741 5740 5739 5739 5736 5732 5729 5725 5722 5719 5716 5713 5710 5708 5705 5702 5699 5697 5695 5692 5690 5689 5687 5686
5725 5727 5730 5731 5733 5734 5735 5736 5737 5737 5738 5738 5738 5737 5737 5736 5734 5733 5731 5729 5727 5726 5725 5724 5720 5717 5714 5710 5708 5705 5702 5699 5696 5694 5691 5689 5686 5684 5682 5680 5679 5677 5676
5714 5716 5719 5720 5722 5723 5724 5725 5726 5726 5726 5726 5726 5726 5725 5724 5722 5721 5719 5717 5715 5713 5712 5711 5708 5705 5702 5699 5696 5693 5690 5688 5685 5683 5680 5678 5676 5674 5672 5671 5669 5668 5667
5703 5705 5707 5709 5710 5711 5712 5713 5714 5715 5715 5715 5714 5714 5713 5712 5710 5709 5707 5705 5703 5701 5700 5698 5696 5693 5690 5687 5685 5682 5679 5676 5674 5672 5670 5668 5666 5664 5662 5661 5660 5658 5657
5692 5694 5696 5697 5699 5700 5701 5702 5702 5703 5703 5703 5702 5702 5701 5700 5698 5697 5695 5693 5691 5689 5687 5686 5684 5681 5678 5676 5673 5671 5668 5666 5663 5661 5659 5657 5655 5654 5652 5651 5650 5649 5648
5679 5682 5683 5685 5687 5688 5689 5690 5690 5691 5691 5691 5690 5690 5689 5688 5686 5685 5683 5681 5679 5677 5675 5674 5672 5669 5667 5664 5662 5660 5657 5655 5653 5651 5649 5647 5645 5644 5642 5641 5640 5639 5638
5667 5669 5671 5673 5674 5676 5677 5678 5678 5679 5679 5679 5678 5678 5677 5676 5674 5673 5671 5669 5667 5666 5664 5662 5660 5657 5655 5653 5651 5648 5646 5644 5642 5640 5639 5637 5635 5634 5632 5631 5630 5629 5628
5655 5657 5659 5661 5663 5664 5665 5666 5666 5667 5667 5667 5666 5666 5665 5664 5663 5661 5659 5657 5656 5654 5652 5650 5648 5646 5644 5642 5640 5638 5636 5634 5632 5631 5629 5627 5625 5624 5623 5622 5621 5619 5618
5643 5645 5647 5649 5651 5652 5653 5654 5654 5655 5655 5655 5654 5654 5653 5652 5651 5649 5647 5646 5644 5642 5640 5639 5637 5635 5633 5631 5629 5627 5625 5624 5622 5620 5619 5617 5615 5614 5613 5611 5610 5609 5608
5631 5634 5636 5638 5639 5640 5641 5642 5643 5643 5643 5643 5643 5642 5641 5640 5639 5637 5636 5634 5632 5630 5628 5627 5625 5624 5622 5620 5618 5617 5615 5613 5612 5610 5609 5607 5606 5604 5603 5601 5600 5599 5598
5620 5622 5624 5626 5627 5628 5629 5630 5631 5631 5631 5631 5631 5630 5629 5628 5627 5626 5624 5622 5620 5619 5617 5616 5614 5612 5611 5609 5608 5606 5605 5603 5602 5600 5599 5598 5596 5594 5593 5591 5590 5589 5588
5608 5611 5612 5614 5615 5617 5617 5619 5619 5620 5619 5619 5619 5618 5618 5617 5616 5614 5613 5611 5609 5608 5606 5605 5603 5602 5600 5599 5598 5596 5595 5594 5592 5591 5589 5588 5586 5584 5583 5581 5580 5578 5577